ECMWFFLT2_925_thetae_000.txt.gz
Theta_e
333 333 332 331 331 330 328 328 331 334 336 337 337 337 337 337 338 337 334 334 334 334 334 333 333 332 333 333 329 327 327 326 329 331 329 330 329 327 325 323 326 328 326 325 325 324 323 323 322 321 325 325 326 329 330 331 332 331 330 329 329 327
335 335 333 333 333 331 329 327 326 329 333 333 335 336 337 338 338 338 337 337 336 335 334 332 334 334 333 335 333 330 328 326 329 330 329 328 327 326 325 324 326 326 324 325 325 326 324 322 321 320 325 326 327 330 329 331 331 331 330 329 327 326
337 336 335 335 334 333 331 329 326 326 329 329 332 334 335 337 337 337 337 337 337 335 333 331 334 335 334 336 336 333 329 327 327 327 326 327 326 325 324 324 325 324 324 324 323 325 324 322 321 321 325 325 327 330 329 330 331 330 329 327 326 326
337 337 337 337 336 335 331 330 328 326 327 327 330 330 330 335 337 336 336 337 337 333 333 334 333 334 335 335 336 334 331 328 326 324 323 323 324 325 324 324 324 323 323 323 321 320 319 320 320 321 325 324 326 330 329 330 330 329 328 326 327 326
338 338 338 338 337 335 332 331 330 328 328 327 328 327 328 334 336 337 337 337 336 333 333 334 331 332 334 335 335 334 332 328 325 322 319 319 322 323 324 324 324 323 324 325 323 321 321 321 318 320 324 323 326 330 329 329 330 328 327 327 327 325
338 339 338 338 337 335 334 335 334 332 330 329 328 328 331 334 336 338 337 336 335 335 335 334 333 334 334 335 336 334 331 328 324 320 316 318 320 321 322 324 323 323 324 326 326 327 328 326 319 316 320 321 326 331 329 329 328 328 328 328 327 326
336 338 338 337 337 336 336 337 337 336 334 332 330 331 334 335 336 336 336 336 335 335 337 336 336 336 334 335 336 334 331 327 324 320 316 317 318 319 320 321 323 323 324 325 327 329 330 329 320 315 320 324 328 332 331 331 328 328 329 328 328 328
330 334 336 336 337 337 337 337 337 337 337 335 332 333 336 336 335 335 335 335 335 335 336 336 336 336 334 335 335 334 332 328 325 321 317 317 318 319 320 320 322 323 324 325 327 329 330 330 323 320 327 330 331 332 331 331 328 328 330 329 330 329
326 331 334 334 335 336 335 335 336 336 337 336 335 335 336 336 336 335 335 334 334 334 334 336 337 336 335 335 334 333 332 329 328 325 320 318 317 319 321 321 323 324 324 325 326 327 329 330 327 325 328 330 332 330 331 331 328 329 330 330 331 329
325 330 331 330 331 331 331 331 332 335 336 336 335 335 335 335 336 335 334 335 334 334 334 336 338 337 337 335 334 334 332 330 329 328 325 321 319 319 320 321 322 323 324 325 326 327 328 329 330 328 326 327 330 329 330 330 328 329 330 330 330 329
325 329 328 326 327 327 327 325 325 326 331 335 336 336 335 334 335 335 335 335 335 335 334 335 336 337 336 335 335 335 333 331 330 329 327 325 322 323 325 325 323 324 325 327 327 327 328 328 330 331 328 326 327 328 329 329 329 330 330 330 330 330
324 326 324 324 324 324 326 325 322 320 323 329 331 332 335 335 334 334 334 335 335 335 335 335 337 336 335 334 334 335 333 331 331 330 329 328 326 326 329 330 329 327 327 329 330 330 330 329 330 331 330 328 326 327 329 329 329 329 329 330 329 330
322 323 322 322 322 323 324 324 323 322 321 323 323 322 326 330 332 332 333 334 332 332 334 335 336 335 335 334 333 334 333 332 332 331 331 331 330 328 329 331 331 331 330 331 331 332 332 330 330 330 330 330 328 327 329 330 329 328 329 329 329 330
320 320 321 321 321 322 322 321 322 323 323 323 322 321 319 321 327 330 330 331 328 328 332 334 335 336 336 336 334 334 333 333 333 332 332 332 332 330 329 330 330 331 331 332 333 333 333 331 330 330 329 330 329 328 329 330 329 329 329 328 329 330
319 318 320 319 319 320 320 319 321 323 323 323 323 324 322 319 321 323 323 325 325 325 328 329 331 334 335 335 335 335 335 335 334 334 333 332 332 332 331 330 331 331 331 333 333 333 333 330 328 330 330 330 330 329 329 329 329 329 329 328 329 329
317 317 317 317 318 319 316 317 319 320 320 323 322 321 322 321 320 320 320 323 324 322 324 326 328 332 335 335 335 335 336 336 335 335 334 334 333 334 333 331 331 332 332 332 333 333 332 329 329 330 330 330 330 330 330 329 329 329 329 329 329 329
316 316 316 315 314 313 312 315 319 317 316 319 319 317 319 322 323 324 324 325 325 322 323 327 330 332 333 334 335 335 335 335 336 335 334 335 334 334 334 330 327 330 332 332 332 333 332 330 330 331 330 330 330 330 329 329 329 329 329 329 329 329
313 315 315 314 312 312 312 315 317 315 313 314 316 319 321 322 323 325 325 325 326 325 324 326 329 331 331 333 334 335 335 335 335 336 335 335 335 334 332 327 325 329 332 333 335 334 332 331 331 331 330 330 330 329 328 328 327 328 329 329 329 329
310 311 313 314 314 315 316 317 317 314 312 314 316 318 321 323 324 324 324 324 325 327 327 326 328 329 329 329 330 331 333 333 331 330 333 334 335 334 330 326 327 332 334 335 336 335 334 334 332 332 332 331 331 329 328 327 326 326 327 328 329 329
310 311 313 315 316 317 318 318 318 315 312 314 315 314 315 320 322 322 322 323 322 324 327 327 327 328 327 327 326 325 326 325 321 322 328 331 332 333 332 332 332 334 335 335 336 335 335 335 332 332 333 331 331 330 328 326 326 326 326 326 327 329
312 314 315 316 317 318 319 319 319 317 314 312 310 308 308 311 314 315 316 320 321 320 321 322 324 324 324 325 324 325 324 322 320 321 326 328 328 329 331 334 333 332 333 333 335 335 335 334 331 331 334 333 332 331 330 327 326 326 326 325 326 327
313 316 317 317 318 318 319 319 317 316 314 311 308 306 307 309 311 311 312 316 319 318 317 317 318 319 319 320 321 324 325 325 325 326 329 330 330 329 329 331 331 330 332 334 335 336 336 334 331 331 333 333 333 333 331 328 327 326 325 326 326 326
313 316 318 318 318 319 318 315 314 313 312 311 309 309 310 312 314 314 313 314 316 317 316 315 316 318 320 320 321 323 324 324 325 326 327 329 330 331 331 331 331 331 332 333 335 335 335 335 332 332 332 332 335 334 332 329 328 327 326 325 326 325
314 315 318 319 319 320 316 312 311 311 311 311 311 312 313 314 315 315 315 315 315 316 315 313 315 318 320 320 320 321 322 323 324 324 325 326 327 328 329 330 331 332 333 333 333 331 332 334 332 332 333 333 333 333 334 331 328 328 327 326 325 324
314 316 319 318 317 316 314 312 312 312 313 313 314 315 315 315 315 315 315 315 316 315 313 314 315 317 318 319 319 320 320 321 323 323 323 324 325 325 325 327 328 330 331 332 333 331 331 333 332 332 333 334 333 334 338 334 329 329 328 327 326 324
313 316 318 316 314 313 312 312 313 314 315 315 316 315 314 314 314 315 315 314 314 313 314 315 316 316 316 318 319 319 319 319 321 322 323 323 323 323 324 325 326 327 329 331 333 332 333 333 332 331 331 333 332 332 335 333 332 334 331 329 329 328
313 316 317 315 313 312 312 312 311 313 314 314 315 313 311 312 313 312 312 312 312 314 316 317 317 317 318 318 319 318 318 318 319 320 321 322 322 322 322 323 324 325 326 328 330 331 332 332 332 332 331 331 331 330 330 330 333 336 336 335 332 330
315 316 317 316 314 314 313 311 310 313 313 314 313 310 310 310 309 309 309 311 311 314 318 318 318 318 318 318 319 318 318 317 317 318 319 320 321 321 322 322 323 323 324 325 326 327 328 329 331 332 332 331 331 331 330 330 332 333 336 339 335 331
317 317 317 317 316 315 315 311 311 313 314 315 313 308 308 308 307 307 309 312 313 314 317 319 319 319 318 317 316 315 314 313 314 315 316 317 318 319 320 321 321 321 322 322 323 325 326 327 328 328 329 329 331 332 332 332 334 332 332 334 336 335
319 318 317 317 316 316 316 312 313 315 315 315 312 307 308 309 306 306 308 312 314 314 315 317 318 319 318 315 311 308 307 307 308 308 309 311 313 317 319 319 319 320 320 321 321 322 323 324 325 327 328 329 330 332 332 333 333 332 330 330 332 334
320 319 318 318 316 317 316 313 315 318 317 317 313 308 309 310 308 308 308 309 313 315 315 315 315 316 315 312 308 306 305 304 305 305 306 307 310 314 317 317 318 318 318 319 319 320 321 321 322 324 326 328 329 330 330 331 331 331 330 329 330 331
321 321 320 319 317 317 316 314 316 318 316 315 314 310 311 312 310 309 308 309 313 315 316 315 313 312 313 312 310 309 306 305 305 305 306 306 307 310 312 314 315 315 315 316 316 317 318 319 320 320 322 323 326 328 329 330 330 329 330 330 329 328
322 321 320 320 319 318 316 314 317 318 314 312 313 312 311 312 311 310 309 310 313 315 315 315 314 312 313 314 313 311 308 306 306 306 306 306 307 308 308 310 311 312 313 314 315 315 316 317 318 318 319 319 321 324 327 328 329 329 329 329 329 328
322 322 321 320 319 319 318 316 317 317 314 312 312 312 312 312 312 311 310 310 312 313 313 314 314 313 313 315 314 312 309 308 308 307 307 307 307 308 308 309 310 311 312 313 314 314 315 315 316 316 317 318 319 321 323 326 328 329 329 328 328 328
322 322 321 321 320 319 319 317 316 316 315 314 314 314 313 313 312 311 311 311 310 311 312 313 314 313 314 314 313 312 311 311 310 309 308 308 308 308 308 308 308 309 311 311 312 313 313 314 314 314 315 316 317 318 320 322 325 327 328 327 327 328
322 322 321 321 320 320 320 318 317 317 317 315 315 314 313 313 312 311 311 311 310 311 312 312 313 313 313 313 312 312 312 312 311 310 308 309 310 310 309 308 308 308 309 309 310 310 311 312 312 312 313 314 315 316 317 319 320 323 326 327 328 328
321 322 321 321 321 320 320 318 317 318 317 316 315 314 314 312 312 313 313 312 311 312 312 312 312 312 312 312 312 312 312 312 311 309 309 309 309 309 308 308 308 308 308 308 308 309 309 309 310 310 310 311 312 314 315 316 318 320 322 325 327 328

ECMWFFLT2_925_thetae_003.txt.gz
Theta_e
332 332 330 329 330 331 334 337 337 338 339 339 339 338 337 336 333 332 330 331 331 333 336 336 335 334 332 331 329 329 328 329 330 330 328 329 329 327 326 325 323 326 330 328 326 325 324 324 323 322 325 327 329 330 330 331 333 331 329 328 327 326
331 332 331 330 329 329 331 335 336 338 338 338 339 338 337 335 335 334 332 332 331 334 336 334 335 333 332 332 330 330 328 327 330 329 326 326 327 326 326 325 324 327 330 328 324 324 324 323 322 322 325 328 329 329 330 331 332 331 329 328 327 326
332 332 332 332 330 328 329 330 332 335 336 336 337 337 337 336 336 336 334 334 333 335 334 332 333 334 333 333 331 331 329 327 328 327 325 323 323 324 325 325 327 328 328 327 324 324 323 322 322 321 325 328 328 328 330 331 331 330 329 328 326 326
334 334 334 333 332 330 329 327 327 330 333 335 335 337 338 337 337 338 336 335 335 335 334 331 332 333 334 334 333 332 330 328 327 325 323 322 321 322 323 324 326 326 327 327 325 324 323 322 321 321 324 327 328 329 329 330 330 330 329 327 326 326
335 335 335 334 334 333 331 329 327 326 328 329 332 335 335 336 338 339 338 337 336 335 334 332 331 332 333 334 336 333 331 330 327 323 321 320 322 322 323 324 325 325 325 326 325 324 322 321 321 321 323 326 328 329 329 330 329 330 328 326 327 326
336 336 336 335 335 335 333 330 328 326 326 326 328 331 330 333 336 338 338 337 336 334 333 334 331 332 332 333 335 335 332 330 325 321 319 320 322 323 323 323 324 323 323 323 322 322 320 320 320 320 323 324 328 329 328 329 329 329 327 326 327 326
337 337 337 337 336 337 334 331 330 329 327 327 328 328 328 331 335 336 336 336 336 334 333 334 333 332 334 335 335 335 333 328 323 319 317 320 322 323 323 323 323 322 323 323 322 322 323 322 320 319 321 323 327 329 328 328 328 328 327 327 328 327
337 337 337 337 336 336 334 333 334 334 331 329 328 328 329 331 335 336 336 336 336 334 333 335 335 334 335 335 335 335 332 327 324 319 316 319 322 322 323 322 322 323 324 325 326 327 327 326 324 319 318 320 325 330 330 328 328 327 328 328 328 328
337 337 337 337 337 336 334 335 335 335 335 334 331 330 332 334 335 335 335 336 335 334 334 335 335 334 334 334 334 335 332 327 324 319 316 319 320 320 320 320 320 322 323 325 328 329 329 329 327 322 320 322 327 331 331 330 329 327 328 329 328 329
334 336 336 336 337 337 336 336 336 335 336 336 334 333 335 335 336 335 335 334 334 334 334 334 334 334 335 335 335 336 334 329 326 321 318 317 319 319 319 320 321 323 324 326 327 328 328 328 328 326 325 326 329 331 331 331 330 327 328 329 329 329
331 333 334 334 335 335 333 332 333 334 336 336 335 336 336 335 335 335 335 334 334 334 334 334 334 334 335 336 335 336 335 331 329 325 321 318 318 319 320 321 322 323 324 325 325 326 327 327 327 328 327 327 328 330 330 330 330 328 328 329 329 329
330 330 330 330 330 328 326 324 325 327 333 336 336 336 335 335 335 335 334 334 335 334 334 334 334 334 334 336 336 336 335 332 330 328 326 322 320 319 319 320 322 322 323 323 324 325 327 328 328 328 328 328 328 330 330 329 329 328 329 329 329 329
328 327 326 326 326 325 323 322 320 321 327 330 331 334 335 334 333 334 334 334 335 335 334 334 335 334 334 336 336 335 336 334 331 330 329 327 324 322 321 322 324 325 325 326 326 328 330 330 329 329 329 329 328 329 329 329 329 328 329 329 329 329
326 325 324 323 323 324 322 323 322 321 323 323 322 326 330 332 331 332 334 334 334 333 334 333 333 333 334 335 335 335 336 335 333 330 330 329 328 326 325 325 328 330 331 330 330 331 332 332 331 330 329 329 329 329 329 328 328 328 328 328 329 329
324 323 322 322 322 322 322 322 323 323 323 323 322 321 322 326 329 330 330 330 329 330 332 332 332 333 334 335 335 335 336 336 334 332 331 331 330 330 329 328 329 330 331 331 331 331 331 331 332 331 329 329 330 330 329 328 328 329 328 328 328 329
321 322 321 320 321 320 319 320 322 323 323 323 323 321 320 321 324 325 323 323 325 326 328 329 331 333 333 334 334 334 335 335 334 334 333 333 332 331 330 330 330 330 330 330 331 331 331 331 332 333 330 329 330 331 330 329 328 328 328 328 328 328
320 321 320 319 319 317 317 318 319 320 322 322 320 319 321 321 321 322 322 322 322 322 324 326 330 333 333 334 334 334 334 334 334 335 334 334 334 333 332 332 331 331 329 329 332 333 332 333 333 333 331 329 330 330 330 330 329 329 328 329 328 328
319 318 317 317 316 315 316 317 316 317 319 320 317 317 321 322 323 324 324 324 323 322 323 325 329 333 334 334 333 333 334 334 333 334 334 334 334 333 334 333 333 333 328 327 331 333 333 334 332 331 330 328 329 330 330 330 329 329 329 329 328 328
318 317 316 315 313 313 316 316 314 314 315 316 317 319 322 322 323 325 324 325 326 325 325 326 328 331 332 332 331 329 331 333 333 332 333 334 335 334 334 334 333 332 327 326 331 334 334 333 332 331 330 328 329 330 330 330 330 329 329 328 328 328
317 316 315 312 312 314 316 315 313 313 314 316 317 319 321 323 324 324 323 324 325 326 326 326 327 327 328 328 327 324 325 329 328 327 329 330 331 332 333 333 333 330 327 326 330 334 334 333 332 332 331 330 330 330 329 330 329 329 329 328 327 328
316 315 313 312 314 316 316 314 314 313 314 315 315 315 317 321 321 320 320 322 323 323 325 325 326 326 325 325 326 325 323 323 322 322 327 329 328 329 329 330 331 331 331 330 331 333 333 332 331 330 331 331 331 330 329 329 329 328 328 327 327 327
314 314 313 313 315 316 316 314 313 312 312 311 310 309 311 314 315 314 316 320 320 319 319 319 320 321 322 321 323 325 324 324 324 324 329 330 330 330 329 329 329 330 331 331 331 332 333 332 329 328 330 331 332 332 330 329 330 329 327 327 327 327
311 312 313 314 315 316 316 315 313 312 310 308 307 307 308 312 313 312 314 317 317 317 315 314 316 318 319 319 321 323 324 324 326 326 328 329 329 330 329 330 330 330 330 330 331 331 331 331 329 327 328 331 334 333 332 331 329 330 329 328 327 327
310 312 314 315 316 317 317 317 316 313 310 307 307 308 310 312 315 315 314 315 317 316 314 313 316 319 319 319 320 321 322 323 324 324 325 326 327 326 326 327 329 330 331 331 331 331 331 331 330 328 328 331 331 332 335 333 329 330 331 329 328 327
312 313 315 316 317 318 318 318 317 316 313 309 308 309 310 312 314 316 314 315 316 314 313 314 316 318 318 319 318 319 320 321 322 323 323 323 324 324 324 325 326 327 329 330 331 331 331 331 330 329 328 329 329 332 336 333 328 331 330 329 329 327
313 314 315 316 317 318 319 316 315 316 314 311 310 309 309 310 311 313 315 315 315 314 314 315 316 316 317 317 318 318 318 319 321 321 321 322 322 322 322 323 324 325 326 327 328 329 330 330 330 330 329 329 329 331 333 330 331 334 331 329 329 328
314 315 315 317 318 319 318 314 312 312 312 311 311 308 307 308 309 312 314 315 314 315 316 316 316 317 317 318 318 317 318 318 319 320 320 321 321 321 321 322 322 323 324 324 325 326 328 328 328 329 329 329 328 328 328 329 330 333 333 332 330 328
314 316 317 318 319 320 318 312 311 312 311 311 310 308 307 307 308 310 312 313 313 315 318 317 317 318 318 318 318 318 317 317 317 318 318 319 319 320 320 320 321 321 322 322 323 324 325 326 328 328 328 328 328 328 328 328 328 328 331 332 331 329
313 315 317 319 318 318 316 312 311 312 311 312 311 309 307 307 306 307 308 310 312 315 318 318 318 318 317 317 317 315 314 314 314 314 315 316 317 318 318 319 319 319 320 320 320 321 322 323 325 325 326 327 328 328 327 327 328 328 328 330 331 331
313 314 317 319 317 314 313 311 312 311 311 312 312 310 309 308 307 306 307 309 310 314 316 318 318 318 317 316 313 308 307 308 309 310 310 312 313 314 315 316 316 316 317 317 318 318 319 320 321 321 322 323 324 326 327 327 328 329 329 329 330 330
313 314 316 318 315 312 312 312 311 310 310 311 312 311 309 309 308 306 307 308 309 312 315 316 317 317 316 313 308 305 305 305 306 306 307 307 307 308 310 311 311 312 313 314 314 315 316 317 318 318 319 319 321 322 324 325 327 328 328 328 328 329
315 315 316 317 314 313 312 312 311 311 311 312 313 311 308 308 308 307 306 306 308 311 313 315 315 315 313 311 308 306 306 306 306 306 306 306 306 307 307 307 307 308 310 311 312 313 313 314 315 316 317 317 318 319 320 322 324 325 326 327 328 328
316 315 316 316 314 313 313 312 312 311 312 313 314 313 310 308 308 307 306 306 307 308 311 312 313 312 312 311 311 310 309 308 308 308 307 306 307 307 306 306 305 306 307 309 310 311 312 313 313 313 314 315 316 317 317 318 320 322 324 326 327 327
316 316 317 317 315 315 314 314 314 313 313 314 315 314 312 310 310 309 308 307 307 307 308 309 310 310 311 312 312 312 311 310 310 310 308 306 306 306 305 306 306 306 307 308 308 309 309 310 311 311 312 312 313 314 315 316 317 319 321 324 326 327
317 317 317 317 316 316 315 315 315 314 313 315 316 315 314 312 311 311 310 309 308 307 308 308 309 310 311 312 312 313 312 311 311 310 308 306 306 305 305 306 307 307 307 307 307 308 308 308 308 309 310 310 311 311 312 313 314 315 317 319 322 324
318 318 318 318 317 317 316 316 315 314 314 314 314 314 314 313 311 311 312 311 309 308 308 308 310 312 312 313 313 313 312 311 311 311 308 306 305 306 306 306 305 305 306 306 307 307 307 307 307 307 308 308 309 309 310 311 312 312 313 314 316 319
319 319 319 318 318 317 317 316 315 315 315 315 314 314 313 312 312 312 312 312 310 309 308 309 311 312 312 313 313 312 312 312 312 311 308 306 306 307 306 305 304 304 304 305 305 305 305 305 305 305 306 306 307 307 307 308 309 310 311 312 312 314

ECMWFFLT2_925_thetae_006.txt.gz
Theta_e
330 329 330 332 335 338 339 339 338 339 341 340 339 339 339 338 335 335 334 332 331 332 333 334 334 333 331 330 329 329 331 332 332 329 326 326 325 325 325 330 333 332 329 327 325 324 322 319 323 326 326 327 329 329 330 331 332 331 328 326 326 325
332 329 328 330 332 335 337 338 338 340 340 340 339 339 339 338 336 335 335 330 329 331 333 333 333 333 330 329 329 329 330 330 330 328 325 325 324 324 324 325 330 332 330 327 325 324 323 322 325 326 326 328 329 329 330 330 331 331 328 326 326 326
331 330 328 329 330 331 335 337 337 339 339 339 338 339 339 338 336 336 334 331 330 331 333 333 332 332 330 331 330 329 330 329 329 328 325 324 322 323 324 322 325 330 331 328 325 324 324 324 325 325 325 328 329 329 330 330 331 330 328 327 326 326
331 331 330 330 329 329 331 334 336 337 338 338 338 338 337 337 336 335 334 333 333 333 334 332 332 333 331 332 332 330 329 329 330 330 327 323 322 323 323 321 323 329 331 327 325 324 323 324 323 323 325 328 329 329 330 330 331 330 328 327 326 326
333 332 332 331 331 329 328 329 330 332 335 336 337 337 337 337 336 335 334 334 334 334 334 332 332 334 333 331 332 331 331 330 329 329 327 323 321 321 321 320 322 328 328 325 324 324 323 323 322 322 325 328 328 328 330 330 330 330 328 327 326 326
334 334 333 333 333 332 330 329 327 327 330 331 333 334 336 336 336 336 334 334 334 335 334 332 331 333 334 331 331 332 331 331 329 328 325 322 320 320 320 320 321 325 326 324 324 324 323 322 322 321 324 328 328 327 329 329 329 329 328 326 326 326
333 333 333 334 334 334 333 331 329 327 326 328 328 330 332 332 333 335 335 335 335 335 333 332 333 332 333 333 332 332 331 329 328 326 322 320 320 320 321 321 321 324 325 324 324 323 322 322 321 321 324 326 327 328 328 329 329 329 327 326 327 327
332 332 332 333 333 334 334 333 330 329 328 328 328 328 329 329 330 332 333 334 336 334 332 333 334 333 333 332 333 333 332 330 328 324 319 318 321 321 321 321 322 323 324 323 322 323 324 324 323 321 322 324 325 327 328 328 328 328 327 326 327 327
331 332 332 332 333 334 335 334 332 332 331 331 331 329 328 329 329 331 332 333 335 333 332 333 334 334 334 333 333 334 333 332 328 323 318 317 321 321 321 321 322 323 322 322 323 325 326 327 327 323 321 322 323 326 328 328 328 327 327 327 328 327
331 331 332 332 333 334 334 334 333 334 333 334 333 332 331 330 331 331 332 333 334 334 334 335 335 335 334 334 334 334 334 333 327 323 319 316 320 321 320 321 321 322 323 324 326 327 327 327 327 326 322 321 321 325 329 329 329 328 326 327 328 328
332 332 332 332 333 334 334 333 333 334 334 334 335 335 334 333 334 333 332 333 334 334 334 335 335 334 333 334 335 334 335 334 328 324 319 316 319 320 319 320 319 321 322 325 327 327 327 326 326 326 325 323 323 326 330 330 330 330 327 327 328 328
331 332 333 333 333 334 332 332 331 330 332 335 335 334 334 335 335 334 334 334 334 334 334 334 334 334 333 333 335 334 335 334 329 325 321 317 318 319 320 320 321 322 323 325 326 325 325 325 326 327 328 327 326 327 329 329 330 330 328 327 328 328
329 331 332 332 332 330 327 325 323 324 330 335 336 334 334 335 335 334 335 334 334 334 334 334 334 334 334 333 334 334 334 334 331 328 327 323 319 319 319 320 321 322 323 323 323 323 325 326 327 329 329 329 328 328 328 329 329 329 329 328 328 329
328 330 330 329 328 325 323 322 320 320 325 329 330 333 334 334 333 334 334 334 335 335 334 334 334 335 335 334 334 334 334 334 334 333 331 328 325 321 320 320 321 322 323 324 325 327 329 329 329 329 330 330 329 328 328 329 329 329 328 328 328 329
328 328 326 326 324 323 322 322 321 321 322 322 323 327 331 331 332 333 332 332 334 334 334 333 333 334 334 334 333 333 334 334 334 333 332 331 330 328 325 324 324 325 326 328 330 330 331 330 330 329 330 330 330 329 328 328 328 328 328 328 328 328
326 326 324 324 323 322 322 321 321 322 322 322 320 321 324 327 329 329 328 327 329 330 331 331 331 332 333 333 332 333 333 333 334 333 333 332 332 332 331 329 327 328 329 329 329 330 330 330 331 331 330 331 331 330 328 328 327 326 326 327 327 327
324 323 322 322 321 321 320 320 321 322 323 322 320 320 321 322 323 324 323 322 323 324 325 328 330 331 331 332 332 332 333 333 333 333 333 332 333 333 333 331 330 329 329 329 330 329 328 330 332 332 332 331 331 330 329 328 327 326 326 326 325 326
323 322 321 321 320 319 318 318 320 322 322 320 317 319 321 321 322 323 323 322 322 321 324 328 330 330 331 332 331 331 331 332 333 332 332 332 334 334 334 333 331 331 330 330 331 328 326 330 333 332 332 332 332 331 329 329 328 328 328 327 326 327
322 321 320 319 317 317 317 317 319 320 320 318 317 320 322 322 323 324 324 323 324 323 324 326 328 329 329 330 329 328 329 331 332 332 331 331 333 333 332 333 333 332 332 331 331 326 325 330 333 332 331 331 331 331 329 328 329 329 329 329 328 328
320 319 319 317 316 316 316 316 317 317 317 317 318 321 322 323 323 323 323 323 324 324 324 325 326 326 326 326 326 326 325 326 329 331 330 329 330 330 330 332 333 332 332 331 329 325 325 330 332 332 331 331 332 331 330 329 328 329 330 330 329 329
318 318 316 315 314 314 316 315 314 314 314 317 319 321 322 323 323 322 322 322 322 322 323 324 324 324 324 324 324 325 323 322 324 326 329 328 327 328 327 329 332 332 332 330 328 326 327 331 331 331 331 331 331 330 330 330 329 329 329 330 330 329
317 316 315 314 312 312 315 315 312 311 313 315 318 319 320 320 318 316 318 320 319 318 317 318 319 321 323 322 322 324 324 324 323 323 327 329 329 328 326 328 330 330 331 330 330 329 329 331 330 328 328 329 330 330 330 330 330 330 329 330 330 329
316 315 314 312 311 312 315 313 310 309 310 311 311 313 314 313 313 312 314 316 316 315 314 313 316 318 319 320 321 323 323 324 324 325 326 328 328 328 328 329 330 330 330 330 330 330 330 330 329 328 327 329 331 331 332 331 330 331 330 330 329 329
316 315 313 311 311 313 314 312 310 308 308 307 308 310 310 311 313 313 313 315 315 314 313 314 316 319 318 319 320 321 321 322 323 324 325 325 325 325 326 327 328 328 328 329 329 329 330 330 329 329 329 329 329 330 333 331 328 330 331 330 330 329
316 314 313 312 313 314 314 313 312 310 309 307 308 310 311 312 314 314 314 315 315 313 313 316 317 318 318 318 318 318 319 320 321 321 322 322 323 323 323 324 326 326 326 327 327 328 329 329 329 330 329 329 329 330 333 330 327 331 330 329 331 330
314 314 313 313 314 314 314 315 313 311 309 308 309 310 310 310 312 314 314 314 315 313 314 315 316 316 317 317 317 317 318 319 320 320 320 321 321 321 322 322 323 324 325 325 326 326 327 328 329 329 328 329 329 330 331 328 329 332 330 328 329 329
310 312 313 313 314 315 315 316 314 310 308 308 308 308 308 309 310 312 314 314 315 315 315 314 316 317 317 317 318 317 317 318 318 319 320 320 320 320 320 320 320 321 322 323 324 325 326 326 327 328 328 328 327 327 328 328 329 331 331 330 328 328
307 310 312 313 314 315 315 316 316 313 309 309 308 308 307 308 309 311 313 313 314 316 316 315 317 317 317 318 317 316 316 316 316 317 318 318 318 318 318 319 319 319 319 320 321 322 323 324 324 325 326 327 326 326 327 327 327 328 329 330 328 328
308 310 312 314 315 316 316 316 317 315 311 310 309 308 307 306 307 309 311 312 314 316 317 317 317 317 317 315 313 312 313 312 312 312 312 313 314 314 314 315 315 315 316 316 317 319 319 319 320 321 323 323 324 324 325 326 327 327 327 328 328 329
309 311 312 314 316 316 316 317 317 315 312 310 310 308 307 306 306 306 308 311 313 316 318 317 317 317 316 311 307 307 308 307 307 307 307 307 307 308 308 309 310 310 311 313 313 315 315 316 317 318 319 320 321 322 323 325 325 325 326 327 328 328
311 312 313 314 315 316 317 318 318 316 312 310 310 309 307 306 306 305 307 309 312 314 317 318 317 317 315 309 305 305 305 306 307 307 306 306 306 305 305 305 306 307 308 309 310 311 312 313 314 315 315 316 317 319 321 322 322 322 324 325 326 326
312 313 313 314 315 317 317 318 319 316 311 310 311 310 308 307 306 305 306 308 311 313 315 316 316 316 314 310 307 307 307 307 308 308 306 305 305 304 304 304 304 305 306 307 307 308 309 310 311 312 313 313 313 315 316 317 318 320 322 322 323 324
311 313 314 315 316 317 318 318 318 315 312 311 311 311 310 309 308 307 305 307 310 311 311 312 313 313 312 311 310 310 310 309 310 309 307 305 305 304 304 303 303 304 305 306 306 306 307 308 308 309 310 310 311 311 312 312 314 316 317 319 321 322
311 312 313 315 316 317 318 317 317 315 312 311 311 311 311 310 310 308 306 306 307 308 308 308 310 311 311 311 312 312 311 310 311 310 308 305 305 304 304 304 303 303 304 305 305 305 305 306 306 307 307 308 308 309 309 310 310 311 312 313 316 318
311 311 313 314 315 316 318 317 315 313 312 311 311 311 312 311 310 309 308 307 306 306 307 307 308 310 310 311 311 311 311 311 311 311 308 306 305 305 305 304 303 303 304 304 304 304 304 304 304 304 305 305 306 306 307 307 308 309 309 309 310 312
312 311 312 313 314 316 317 316 313 312 312 311 311 311 312 312 311 310 310 309 308 307 307 307 308 309 309 310 310 311 312 311 311 311 309 306 305 306 306 305 303 303 303 303 304 304 304 304 304 304 304 304 304 304 304 305 305 306 307 307 308 308
314 313 312 313 314 315 317 315 313 312 312 311 311 312 312 313 312 311 310 310 310 309 308 307 308 308 309 310 311 312 312 312 312 311 309 306 306 306 306 305 304 304 304 303 304 304 304 304 304 304 304 304 304 303 303 303 303 304 305 306 306 306

ECMWFFLT2_925_thetae_009.txt.gz
Theta_e
333 335 337 339 340 341 340 340 341 341 341 340 339 338 338 338 336 335 334 333 334 333 334 334 333 333 332 331 332 332 333 332 331 329 326 326 328 330 332 332 329 327 327 325 322 321 320 321 322 324 327 330 329 329 330 331 332 331 331 330 330 329
330 331 335 338 338 339 340 340 341 341 341 340 338 338 338 337 335 335 333 333 333 332 333 334 332 332 331 329 329 330 331 331 331 329 325 325 326 328 332 333 332 329 328 327 323 321 321 322 323 325 328 329 329 329 329 331 331 331 330 330 330 328
329 329 333 337 337 338 339 339 340 341 341 340 339 338 338 337 336 335 333 334 334 331 332 333 332 332 330 328 328 328 330 330 330 328 325 326 326 327 329 331 333 331 328 327 325 323 322 323 324 325 326 328 329 329 329 331 331 331 329 329 329 326
329 328 331 335 336 337 338 337 338 340 341 340 339 338 338 337 336 336 334 334 334 331 331 332 333 332 330 329 329 329 331 331 331 329 326 325 326 326 326 328 332 332 330 327 326 325 324 323 323 323 326 327 329 329 329 330 331 331 329 328 328 326
331 329 329 330 332 335 336 337 337 338 339 339 338 338 337 337 336 336 336 335 334 332 332 332 332 333 332 331 332 332 332 331 333 333 328 327 327 326 325 327 330 332 331 327 326 325 323 324 323 322 325 328 329 329 330 330 330 330 329 327 327 325
332 331 331 330 329 330 332 334 335 336 337 338 338 337 336 336 336 335 335 334 333 333 333 333 332 333 332 332 334 333 331 331 334 334 331 330 328 325 325 326 328 331 331 327 326 324 323 324 323 323 324 328 329 328 330 330 330 330 329 327 326 326
333 333 333 333 332 330 329 330 332 333 334 335 336 335 334 336 336 335 335 334 334 334 334 334 332 332 332 333 335 333 332 332 334 332 330 330 327 322 321 321 323 328 329 326 325 324 323 323 323 323 324 327 328 328 329 330 329 329 328 327 326 326
334 334 333 333 334 333 332 331 331 332 332 332 331 332 332 333 333 334 335 335 334 334 334 334 332 331 331 332 334 333 332 332 332 331 327 327 326 321 319 320 322 324 326 325 324 323 323 323 322 322 323 325 327 328 328 329 329 329 328 327 326 326
333 333 332 332 334 333 334 334 333 332 332 331 329 329 328 327 328 331 333 333 334 334 334 334 332 332 331 332 333 332 333 332 331 331 327 324 323 320 319 321 319 320 324 324 323 323 323 323 323 323 323 324 325 327 328 328 328 328 328 327 327 327
331 331 331 331 331 332 333 335 334 333 334 334 332 330 329 327 325 329 332 333 333 334 334 333 332 333 333 333 334 333 334 333 332 331 327 322 319 319 320 320 318 320 323 323 323 324 325 326 325 325 324 324 325 326 328 328 328 328 328 327 327 327
329 328 328 328 329 330 332 333 334 334 335 335 334 333 332 331 327 327 332 333 333 333 334 333 333 334 334 333 334 334 334 334 333 331 325 319 317 320 321 320 320 322 322 323 324 325 327 327 326 327 326 326 325 325 327 327 328 328 328 327 327 327
327 326 326 327 327 329 332 333 333 333 334 334 335 334 334 334 331 330 333 334 334 334 334 334 334 335 333 332 333 333 334 333 333 330 324 320 319 321 321 320 320 321 321 322 324 325 325 325 326 328 328 328 327 326 327 327 328 328 329 329 327 327
326 325 327 328 329 330 332 331 330 330 331 332 333 334 333 334 333 333 334 334 334 334 335 334 334 335 333 332 332 331 332 333 332 331 327 322 319 320 321 320 320 320 321 322 324 324 323 324 327 329 329 329 328 328 328 328 329 329 329 329 329 327
325 326 329 330 330 330 329 325 323 325 327 329 331 332 333 333 333 333 333 334 334 334 334 334 333 333 332 330 331 331 332 332 332 330 327 324 321 322 321 320 321 321 322 323 323 323 324 328 331 330 330 329 329 329 329 329 329 329 329 329 329 328
324 328 330 330 329 327 324 321 320 322 323 324 327 331 332 332 333 332 331 332 333 334 334 333 333 332 331 331 332 332 332 332 332 331 328 327 326 324 323 321 320 321 323 323 324 325 328 331 331 330 331 329 329 329 329 329 328 328 329 329 328 328
325 329 329 328 326 324 322 321 321 321 321 320 322 327 330 331 330 329 328 328 329 331 331 331 331 331 332 332 332 333 332 332 332 332 331 330 330 328 326 324 322 322 324 325 326 329 330 330 329 330 331 330 330 330 329 329 328 328 329 328 327 327
327 329 327 326 324 322 322 321 322 322 322 320 320 323 326 327 326 324 325 325 325 326 327 328 329 329 330 332 332 332 332 332 332 332 331 330 331 331 330 329 327 326 327 328 328 329 330 329 329 330 330 330 331 330 329 328 328 329 328 327 326 325
327 326 325 324 322 322 320 319 321 323 321 319 320 321 321 323 323 323 324 325 325 324 325 326 327 328 329 330 331 331 331 331 331 331 330 330 331 332 331 331 331 331 330 329 329 330 329 328 328 330 330 331 331 330 330 329 328 328 327 327 327 325
325 325 324 322 321 320 318 317 320 322 320 317 319 321 321 323 323 323 324 325 325 325 325 324 325 327 328 328 329 329 330 330 330 331 330 329 330 331 330 331 332 332 332 331 331 331 330 328 327 329 330 330 330 331 330 330 329 328 328 328 328 327
324 324 322 321 319 317 317 318 320 320 319 317 320 322 322 323 323 322 322 323 324 324 324 323 323 324 324 325 326 327 327 326 327 329 329 328 329 329 328 329 331 331 330 330 331 331 330 327 326 327 329 328 329 331 331 330 329 328 328 327 328 328
323 322 321 319 317 316 316 318 319 318 317 318 321 323 323 322 322 322 321 321 321 320 320 320 321 322 323 322 323 326 325 322 322 326 329 328 329 328 326 328 331 330 328 328 328 330 329 327 327 329 331 329 328 330 331 330 330 329 329 328 328 328
322 321 320 318 316 315 315 316 317 317 316 319 322 322 322 321 319 319 319 319 317 316 315 315 318 320 322 322 322 324 326 325 323 325 328 329 329 327 326 327 328 328 329 328 328 330 330 329 330 331 331 331 330 329 329 329 329 330 330 330 329 329
322 320 319 317 315 314 314 315 314 313 315 318 321 320 318 315 313 314 316 316 315 313 313 315 318 320 321 321 322 323 324 326 326 326 327 328 328 328 328 329 328 328 329 329 330 330 329 330 330 329 329 332 333 332 332 330 330 330 330 331 330 330
321 320 317 316 314 312 313 314 311 312 313 315 316 315 313 312 312 313 315 315 314 313 315 317 319 319 319 319 320 321 322 324 324 325 325 326 327 327 328 329 328 328 327 328 329 329 329 330 329 329 330 331 331 332 334 332 331 331 330 330 331 330
319 318 316 314 312 311 313 312 310 311 311 311 312 313 313 314 313 314 315 315 313 314 317 318 317 317 317 317 317 319 320 321 322 322 323 323 324 324 325 326 327 327 326 327 328 327 328 329 329 329 329 329 330 331 333 330 330 331 330 330 330 330
318 317 315 313 311 311 312 310 309 309 309 310 314 314 313 313 313 315 315 314 313 314 316 316 316 317 317 317 317 318 319 320 320 320 320 321 321 321 321 322 324 325 326 326 326 327 328 328 328 329 328 328 329 331 331 329 330 331 330 329 329 329
317 316 314 312 311 311 312 309 307 307 307 309 311 311 311 311 312 313 314 314 315 314 315 316 317 317 317 317 317 317 318 319 319 319 319 319 319 319 319 319 320 322 323 324 325 325 326 327 327 327 328 327 327 328 328 329 330 330 331 331 330 330
316 315 313 312 311 311 311 310 307 307 307 307 308 308 309 311 312 313 313 315 316 315 316 317 317 318 317 316 316 315 316 317 317 318 318 318 317 317 316 316 317 318 320 321 322 323 323 324 324 325 325 326 326 327 327 328 329 329 330 330 329 329
315 314 313 312 311 311 311 310 309 308 307 307 307 308 310 311 312 312 313 314 316 316 316 317 317 316 313 313 312 311 310 310 311 312 313 313 312 312 312 312 312 314 315 317 318 320 320 320 321 322 322 323 324 325 326 327 327 327 328 328 328 328
315 314 313 312 312 312 311 311 310 310 309 308 307 308 309 311 312 313 313 313 316 317 316 317 317 313 309 309 308 307 307 306 306 306 306 306 306 305 306 306 307 309 310 312 313 315 316 317 318 319 319 320 321 322 324 325 324 325 326 327 327 327
314 314 314 312 313 312 312 312 312 310 311 311 310 308 309 311 312 313 312 313 316 317 316 317 317 312 307 306 306 307 308 306 305 305 304 304 303 303 303 304 305 306 307 308 310 310 311 312 314 315 316 317 318 319 320 322 322 322 324 325 325 325
312 313 314 313 313 313 312 313 313 312 312 312 312 309 308 309 310 311 310 312 315 317 317 317 316 312 307 306 307 308 309 307 305 305 304 303 303 303 303 303 304 305 305 306 307 308 309 309 310 312 313 313 315 316 316 317 318 319 320 322 323 323
310 312 313 313 314 314 313 312 313 313 312 312 313 311 309 307 308 308 308 310 313 316 316 316 315 312 308 308 309 309 310 309 306 305 305 304 304 303 303 304 305 305 305 306 306 307 307 307 307 308 309 310 311 312 313 313 314 315 316 318 320 321
310 310 311 312 313 313 314 314 313 314 314 313 313 312 310 309 307 306 306 307 309 312 312 312 312 311 309 310 311 311 310 310 308 306 305 305 304 303 303 304 305 305 305 306 306 306 307 306 306 306 306 307 308 309 309 310 311 312 313 314 316 317
311 311 311 312 313 314 314 314 314 314 315 315 315 314 311 310 309 307 306 306 307 308 308 308 309 310 310 311 312 312 311 310 310 307 305 305 305 304 303 304 305 304 304 305 305 306 306 306 306 306 305 305 306 307 307 308 308 309 310 311 313 314
312 311 312 313 314 315 315 315 315 316 316 317 317 316 313 311 310 309 307 306 306 307 307 307 308 310 311 312 312 312 311 311 310 308 306 305 305 304 303 304 305 304 304 305 305 306 306 306 306 306 305 305 305 306 306 306 307 307 308 308 309 311
312 311 312 313 314 315 315 316 316 316 317 318 318 316 313 311 310 310 309 307 306 306 307 308 308 309 310 311 312 313 312 311 311 309 307 306 305 305 304 304 304 305 305 305 305 305 305 306 305 305 305 305 305 305 305 305 306 306 306 307 308 308

ECMWFFLT2_925_thetae_015.txt.gz
Theta_e
343 343 343 344 343 342 339 338 336 334 332 332 334 335 336 337 337 337 337 336 334 337 338 337 337 336 337 337 335 335 334 335 335 335 335 334 333 332 331 331 331 331 331 330 329 328 328 329 326 326 328 328 329 331 333 334 333 331 332 330 331 334
343 343 343 343 342 343 341 340 339 338 335 334 335 336 337 336 337 337 337 337 336 338 338 337 337 336 335 336 336 335 333 333 335 335 334 334 332 331 330 328 328 328 328 328 327 326 327 327 325 326 327 328 329 333 335 334 333 331 331 330 332 332
341 342 341 342 342 342 341 342 342 341 339 338 337 337 338 337 336 337 336 337 337 337 337 336 336 336 334 334 335 334 333 332 333 333 333 333 332 331 331 330 328 327 327 326 325 326 328 328 325 325 325 328 332 334 335 334 334 330 330 331 332 329
339 340 340 341 342 341 341 341 342 342 340 340 339 337 338 337 337 337 337 337 337 337 337 336 335 335 335 335 333 331 332 332 331 331 330 331 331 331 331 332 331 329 328 328 327 328 330 329 328 326 326 330 334 334 335 335 333 331 330 331 332 327
337 338 338 338 339 340 339 339 340 341 340 341 339 338 338 339 338 338 338 338 338 337 335 335 336 335 336 335 333 331 332 332 332 332 329 331 332 332 331 332 332 330 330 331 330 330 330 329 329 328 328 331 333 333 335 335 333 332 330 331 331 326
336 336 337 337 337 338 338 338 338 338 338 339 339 339 338 339 338 337 338 337 336 336 334 335 335 335 334 333 333 332 332 333 334 333 330 331 333 332 332 332 333 331 331 331 330 330 331 330 329 328 328 330 332 333 334 334 334 333 331 332 330 324
335 336 336 335 336 336 337 337 337 337 338 337 337 338 337 337 337 336 337 336 335 335 334 334 334 335 334 333 333 333 333 333 334 334 332 331 332 331 331 332 333 332 330 330 330 330 330 330 329 328 328 329 331 332 333 334 334 333 332 333 331 324
333 334 334 334 334 335 336 336 336 338 338 337 337 337 336 336 336 336 336 337 336 335 333 333 334 334 334 333 333 333 333 333 333 334 333 332 333 331 329 331 332 333 331 329 329 329 329 330 330 329 328 328 329 331 332 333 334 334 332 333 332 325
332 332 333 332 333 334 335 335 336 336 338 338 337 337 335 335 336 336 336 337 336 335 334 334 334 333 333 333 332 333 334 333 332 333 333 333 333 330 329 330 331 331 330 328 328 328 328 328 330 330 328 328 329 329 331 333 334 334 334 333 333 328
330 330 331 331 332 333 334 334 334 336 337 337 337 337 336 336 336 335 336 335 336 336 336 335 335 334 334 333 333 334 334 334 334 334 333 332 332 331 330 330 331 330 328 327 326 326 327 327 328 329 328 327 328 328 329 332 333 333 333 332 333 331
330 331 330 330 331 332 333 332 332 335 338 338 337 338 338 336 335 335 335 336 336 336 335 335 336 335 335 335 335 335 334 334 334 334 334 333 332 331 331 330 330 329 326 325 326 326 327 327 326 327 327 326 326 327 328 331 332 332 332 332 333 333
330 331 330 330 330 331 331 331 331 333 336 338 339 338 337 337 336 335 336 336 336 335 334 335 336 336 335 335 335 334 334 335 335 334 334 333 331 330 331 330 329 328 324 322 325 326 326 327 326 326 326 326 326 326 327 329 331 331 331 331 331 332
330 329 329 330 329 330 330 330 331 331 334 337 338 338 337 337 336 336 335 336 336 334 335 337 337 336 335 335 334 333 334 334 334 335 334 332 331 330 331 331 328 328 324 321 325 326 326 327 327 327 326 326 326 326 326 328 329 330 330 330 330 330
331 329 329 330 328 329 330 329 330 329 331 333 334 335 337 336 336 336 336 336 336 335 336 337 336 335 334 334 334 333 333 333 333 334 333 332 331 330 331 330 325 326 324 322 324 326 326 326 326 327 328 328 327 327 327 327 328 329 329 330 329 329
332 330 330 330 329 330 330 329 328 328 330 330 329 332 334 336 336 335 335 335 336 335 335 336 335 335 334 334 334 333 333 334 334 334 333 331 330 330 330 329 325 325 325 322 324 325 326 327 327 328 329 329 328 329 328 328 327 327 329 329 329 329
333 332 332 332 332 331 329 328 328 328 328 327 327 328 330 333 334 334 334 334 335 335 334 335 335 334 334 334 333 332 334 334 333 333 333 332 330 330 330 330 327 327 327 326 325 326 327 329 329 330 331 331 330 329 329 329 328 327 327 328 328 328
333 334 334 334 333 330 329 328 327 326 325 325 326 326 327 329 331 332 332 333 335 335 334 334 333 333 333 334 332 332 335 334 333 333 333 332 331 330 330 330 330 329 329 328 328 327 329 330 330 331 332 332 331 330 330 329 328 328 327 327 327 327
334 335 334 333 331 329 329 327 326 324 324 326 326 326 326 326 327 328 329 331 333 333 332 332 332 332 332 333 332 332 335 335 334 334 333 333 332 331 330 330 331 331 331 331 331 330 330 331 331 331 331 331 331 331 331 330 329 328 327 327 327 327
335 334 334 332 330 329 328 326 325 324 323 324 325 325 326 326 326 327 328 329 330 330 330 331 331 331 332 331 331 331 333 333 334 334 334 333 333 332 332 332 332 333 333 333 333 332 332 333 333 331 329 328 329 329 330 330 329 329 327 327 327 327
334 334 332 330 329 327 326 324 324 324 323 324 325 325 325 325 325 325 326 327 328 328 328 328 328 330 331 330 331 331 331 331 332 333 333 332 333 332 332 333 334 333 333 334 333 332 332 333 333 330 327 326 325 326 328 330 330 330 329 327 327 327
334 332 330 329 327 325 325 323 323 324 323 322 322 323 324 324 324 324 324 324 325 325 326 326 326 326 327 327 329 330 330 331 332 332 332 332 331 332 331 332 332 331 331 333 333 332 332 333 333 332 330 329 328 325 324 326 328 330 330 329 328 327
334 330 328 328 327 325 324 323 323 323 322 321 321 322 322 323 323 322 322 322 322 322 324 324 325 325 325 324 326 327 328 329 330 330 331 330 331 330 330 331 331 330 331 333 332 331 332 333 331 330 331 332 332 329 326 325 327 329 330 329 329 329
332 328 327 328 326 324 323 323 323 321 321 322 323 323 322 321 321 321 321 322 322 322 323 324 323 323 323 323 324 325 326 327 328 330 331 330 330 330 330 331 330 330 332 331 331 330 330 331 330 329 329 331 332 332 331 330 330 330 329 329 329 330
332 328 327 327 326 325 325 325 324 323 323 322 321 320 320 320 321 321 322 322 323 323 324 323 323 322 322 323 323 323 325 326 327 329 331 330 329 330 330 331 331 331 331 329 329 329 329 330 329 329 330 330 331 332 332 333 333 331 331 330 330 329
330 328 327 326 326 325 325 325 324 323 322 320 319 319 320 321 321 322 322 323 323 323 323 323 323 322 322 322 322 322 323 325 326 326 327 328 328 330 329 329 330 331 330 329 329 329 329 330 329 329 330 330 331 332 333 333 333 333 331 331 330 329
330 328 326 326 327 324 322 322 321 320 318 318 319 321 321 321 321 321 322 323 323 322 323 323 323 322 322 322 321 321 321 323 324 325 325 325 325 326 326 327 328 329 328 329 330 328 329 329 329 330 329 329 331 332 332 331 332 333 332 330 330 330
329 328 326 326 327 322 320 321 319 318 318 318 320 321 322 321 321 320 321 323 323 322 323 323 322 322 322 322 321 320 321 321 322 323 323 323 323 323 323 324 325 326 326 328 329 329 329 329 329 329 329 329 329 330 329 329 331 333 332 332 331 329
329 328 326 327 326 321 321 321 318 318 318 318 320 321 322 321 321 321 321 322 322 322 323 322 322 322 321 322 322 321 321 321 321 321 321 322 322 322 323 323 323 323 324 325 326 327 327 327 328 328 328 328 328 328 328 329 331 331 330 331 331 329
328 328 327 326 324 321 322 321 319 319 318 319 320 319 320 320 320 321 322 322 322 322 322 321 320 320 320 320 320 321 320 319 319 319 319 319 319 320 322 322 322 322 322 322 323 324 325 325 325 326 326 327 326 326 327 328 330 329 328 328 330 331
328 329 327 326 324 322 323 321 319 319 318 319 319 318 319 320 321 322 322 322 322 321 321 320 319 318 317 317 317 317 317 316 316 315 315 316 316 317 318 319 320 321 321 321 321 321 322 322 322 322 322 323 323 324 325 326 327 327 326 326 327 328
329 329 327 326 324 323 323 321 320 319 319 319 319 318 320 320 320 322 322 321 321 320 319 319 319 317 317 316 316 316 315 315 315 314 315 315 315 316 316 317 318 318 319 319 320 320 320 320 320 320 320 320 320 320 321 322 323 323 322 323 323 323
329 328 327 326 324 324 324 322 321 320 320 320 319 319 320 320 320 321 321 321 321 320 319 318 318 317 318 317 316 316 316 315 315 315 315 315 315 315 316 316 317 317 317 317 318 318 318 318 319 319 318 318 318 318 319 319 319 320 320 319 320 319
329 328 328 326 323 323 324 323 322 321 320 320 319 319 321 321 320 320 321 320 321 320 320 318 317 317 318 318 316 316 316 316 315 315 315 315 315 315 315 315 315 316 316 316 316 316 316 316 316 316 316 316 315 316 317 316 316 317 317 317 317 316
329 328 328 326 324 323 324 323 322 322 320 320 320 319 320 320 320 319 320 320 320 320 320 319 318 318 318 317 317 317 316 316 315 315 315 315 315 315 315 314 315 316 316 316 316 316 316 316 315 315 315 315 314 314 315 315 315 315 315 316 317 316
328 328 327 327 324 323 324 324 323 322 321 321 320 319 319 320 319 319 319 320 319 319 320 320 319 318 317 318 319 318 317 316 315 315 315 314 314 315 315 314 314 315 315 315 315 315 315 315 315 315 314 314 315 314 313 313 313 314 314 314 315 315
329 328 327 328 325 323 323 324 324 323 323 322 321 320 318 319 320 319 319 320 319 319 320 320 319 318 317 318 319 318 316 316 315 315 315 314 314 314 314 314 314 314 314 314 315 315 315 315 314 314 313 313 315 314 312 312 313 313 313 313 313 314
327 327 327 328 326 324 323 324 324 324 324 324 323 322 319 318 320 320 319 320 319 319 320 320 321 319 317 318 319 318 317 317 316 316 315 315 314 314 314 314 315 315 314 314 314 314 314 314 314 314 312 312 313 314 311 311 313 312 312 313 313 313